GW5487 Weather Reports


time (UTC)temp
F
wind
direction
speed
knots
gust
knots
rain 1hr
in
rain 24hr
in
rain mn
in
humidity
%
barometer
mb
20260504213804 70 215 2.6 6.1 0.00 0.00 0.00 47 1009.6
20260504213300 69 165 1.7 1.7 0.00 0.00 0.00 48 1009.7
20260504212758 68 165 2.6 4.3 0.00 0.00 0.00 50 1009.8
20260504212254 69 189 7.0 7.8 0.00 0.00 0.00 49 1009.8
20260504211752 69 183 7.0 8.7 0.00 0.00 0.00 48 1009.8
20260504211247 69 175 9.6 12.2 0.00 0.00 0.00 49 1009.6
20260504210745 69 245 7.0 11.3 0.00 0.00 0.00 50 1009.6
20260504210242 69 203 4.3 8.7 0.00 0.00 0.00 54 1009.6
20260504205739 69 223 3.5 4.3 0.00 0.00 0.00 54 1009.5
20260504205237 69 145 6.1 8.7 0.00 0.00 0.00 53 1009.4
20260504204735 68 90 3.5 4.3 0.00 0.00 0.00 55 1009.4
20260504204233 68 150 2.6 5.2 0.00 0.00 0.00 57 1009.7
20260504203732 68 167 5.2 8.7 0.00 0.00 0.00 58 1009.6
20260504203229 67 165 6.1 7.8 0.00 0.00 0.00 57 1009.6
20260504202729 68 175 7.0 7.8 0.00 0.00 0.00 57 1009.7
20260504202226 68 167 6.1 7.8 0.00 0.00 0.00 54 1009.6
20260504201724 68 129 3.5 6.1 0.00 0.00 0.00 55 1009.7
20260504201220 68 182 7.8 8.7 0.00 0.00 0.00 56 1009.5
20260504200718 68 81 7.0 8.7 0.00 0.00 0.00 56 1009.9
20260504200214 68 187 7.0 9.6 0.00 0.00 0.00 55 1009.6
20260504195711 68 159 4.3 5.2 0.00 0.00 0.00 56 1010.0
20260504195206 69 182 7.8 8.7 0.00 0.00 0.00 56 1009.8
20260504194703 71 188 7.8 8.7 0.00 0.00 0.00 49 1009.9
20260504194159 69 149 5.2 7.0 0.00 0.00 0.00 53 1009.8
20260504193656 70 182 5.2 7.8 0.00 0.00 0.00 53 1009.9
20260504193154 74 85 3.5 4.3 0.00 0.00 0.00 45 1010.0
20260504192652 75 184 2.6 5.2 0.00 0.00 0.00 31 1009.9
20260504192150 74 141 3.5 5.2 0.00 0.00 0.00 33 1010.0
20260504191648 74 182 3.5 5.2 0.00 0.00 0.00 33 1010.2
20260504191144 74 331 5.2 8.7 0.00 0.00 0.00 33 1010.3
20260504190640 74 267 4.3 5.2 0.00 0.00 0.00 34 1010.5
20260504190137 73 298 2.6 4.3 0.00 0.00 0.00 34 1010.5
20260504185633 73 298 2.6 2.6 0.00 0.00 0.00 34 1010.5
20260504185130 73 229 4.3 7.0 0.00 0.00 0.00 34 1010.7
20260504184626 73 264 1.7 2.6 0.00 0.00 0.00 35 1010.7
20260504184121 73 248 4.3 6.1 0.00 0.00 0.00 34 1010.6
20260504183618 73 262 4.3 6.1 0.00 0.00 0.00 34 1010.7
20260504183116 73 93 2.6 2.6 0.00 0.00 0.00 36 1010.7
20260504182613 74 267 3.5 5.2 0.00 0.00 0.00 35 1010.8
20260504182110 74 201 6.1 9.6 0.00 0.00 0.00 33 1010.8
20260504181608 72 311 4.3 6.1 0.00 0.00 0.00 37 1010.9
20260504181105 73 318 5.2 8.7 0.00 0.00 0.00 36 1011.0
20260504180604 72 149 1.7 1.7 0.00 0.00 0.00 34 1011.2
20260504175559 71 258 2.6 2.6 0.00 0.00 0.00 37 1011.1
20260504175056 71 299 6.1 7.0 0.00 0.00 0.00 36 1011.1
20260504174554 72 298 10.4 13.0 0.00 0.00 0.00 35 1011.3
20260504174051 72 183 6.1 7.8 0.00 0.00 0.00 34 1011.3
20260504173548 72 223 0.9 1.7 0.00 0.00 0.00 35 1011.4
20260504173045 72 311 9.6 12.2 0.00 0.00 0.00 36 1011.4
20260504172541 70 357 7.8 11.3 0.00 0.00 0.00 36 1011.5
20260504172038 72 207 3.5 4.3 0.00 0.00 0.00 35 1011.6
20260504171535 72 259 4.3 7.0 0.00 0.00 0.00 35 1011.5
20260504171032 71 232 4.3 5.2 0.00 0.00 0.00 35 1011.7
20260504170528 70 333 7.8 9.6 0.00 0.00 0.00 36 1011.7
20260504150912 68 185 1.7 4.3 0.00 0.00 0.00 43 1013.0
20260504150408 66 172 2.6 4.3 0.00 0.00 0.00 43 1013.2
20260504140835 65 185 0.9 1.7 0.00 0.00 0.00 43 1013.5
20260504140330 64 225 1.7 1.7 0.00 0.00 0.00 44 1013.3
20260504130800 61 185 4.3 6.1 0.00 0.00 0.00 51 1014.0
20260504130255 61 229 1.7 4.3 0.00 0.00 0.00 53 1014.0
20260504120219 54 233 2.6 2.6 0.00 0.00 0.00 70 1014.5
20260504110647 49 225 1.7 1.7 0.00 0.00 0.00 76 1014.8
20260504110143 49 242 1.7 1.7 0.00 0.00 0.00 75 1014.9
20260504100609 47 219 1.7 1.7 0.00 0.00 0.00 73 1014.6
20260504100107 47 214 1.7 1.7 0.00 0.00 0.00 74 1014.5
20260504082003 46 202 0.0 0.0 0.00 0.00 0.00 67 1014.6
20260504081500 46 217 0.0 0.0 0.00 0.00 0.00 67 1014.2
20260504080955 47 207 0.0 0.0 0.00 0.00 0.00 66 1014.4
20260504080452 47 218 0.0 0.0 0.00 0.00 0.00 65 1014.4
20260504050305 46 214 0.0 0.0 0.00 0.00 0.00 61 1013.8
20260504045802 47 218 0.9 1.7 0.00 0.00 0.00 59 1014.0
20260504045256 47 213 0.0 0.0 0.00 0.00 0.00 60 1013.7
20260504044754 46 215 0.0 0.0 0.00 0.00 0.00 60 1013.7
20260504044251 47 217 0.0 0.0 0.00 0.00 0.00 59 1013.5
20260504043748 47 214 0.0 0.0 0.00 0.00 0.00 59 1013.6
20260504043245 47 218 0.0 0.0 0.00 0.00 0.00 59 1013.7
20260504042743 48 222 0.9 0.9 0.00 0.00 0.00 57 1013.5
20260504042239 48 204 0.9 0.9 0.00 0.00 0.00 57 1013.6
20260504041735 48 215 0.9 0.9 0.00 0.00 0.00 55 1013.5
20260504041231 48 226 0.9 0.9 0.00 0.00 0.00 55 1013.3
20260504040728 48 227 0.9 0.9 0.00 0.00 0.00 55 1013.5
20260504040225 48 230 1.7 1.7 0.00 0.00 0.00 55 1013.4
20260504035721 48 263 0.9 0.9 0.00 0.00 0.00 56 1013.4
20260504035220 48 213 0.0 0.0 0.00 0.00 0.00 56 1013.4
20260504034717 48 222 0.0 0.0 0.00 0.00 0.00 57 1013.1
20260504034214 48 216 0.0 0.0 0.00 0.00 0.00 56 1013.3
20260504033712 48 225 0.9 0.9 0.00 0.00 0.00 55 1013.3
20260504033208 48 200 0.0 0.0 0.00 0.00 0.00 55 1013.3
20260504032705 49 239 0.9 0.9 0.00 0.00 0.00 55 1013.1
20260504032202 49 223 0.9 0.9 0.00 0.00 0.00 54 1013.0
20260504031658 49 191 0.0 0.0 0.00 0.00 0.00 54 1013.1
20260504031155 49 209 0.9 1.7 0.00 0.00 0.00 54 1013.3
20260504030652 50 204 0.9 0.9 0.00 0.00 0.00 53 1013.3
20260504030149 50 208 1.7 1.7 0.00 0.00 0.00 52 1012.9
20260504025646 50 205 0.9 1.7 0.00 0.00 0.00 52 1013.1
20260504025143 50 194 0.0 0.0 0.00 0.00 0.00 53 1013.1
20260504024640 48 287 2.6 4.3 0.00 0.00 0.00 56 1013.1
20260504024136 48 208 0.0 0.0 0.00 0.00 0.00 55 1013.0
20260504023633 48 204 0.0 0.0 0.00 0.00 0.00 57 1013.0
20260504023130 48 211 0.0 0.9 0.00 0.00 0.00 55 1012.9
20260504022626 48 241 0.9 1.7 0.00 0.00 0.00 56 1013.0
20260504022121 48 216 0.0 0.0 0.00 0.00 0.00 58 1013.0
20260504021619 48 203 0.0 0.0 0.00 0.00 0.00 57 1013.2
20260504021115 49 205 0.0 0.0 0.00 0.00 0.00 55 1013.0
20260504020613 49 203 0.0 0.0 0.00 0.00 0.00 55 1013.0
20260504020109 49 206 0.0 0.0 0.00 0.00 0.00 57 1013.1
20260504015606 49 206 0.0 0.0 0.00 0.00 0.00 55 1013.0
20260504015102 49 202 0.0 0.0 0.00 0.00 0.00 56 1013.2
20260504014558 49 202 0.0 0.9 0.00 0.00 0.00 55 1013.0
20260504014055 49 204 0.0 0.0 0.00 0.00 0.00 56 1013.1
20260504013552 49 205 0.0 0.0 0.00 0.00 0.00 58 1012.7
20260504013049 49 212 0.0 0.0 0.00 0.00 0.00 56 1012.8
20260504012547 49 210 0.0 0.0 0.00 0.00 0.00 55 1013.0
20260504012045 50 210 0.0 0.0 0.00 0.00 0.00 56 1012.5
20260504011541 50 203 0.0 0.0 0.00 0.00 0.00 53 1012.7
20260504011037 51 201 0.0 0.0 0.00 0.00 0.00 53 1012.7
20260504010533 51 200 0.0 0.0 0.00 0.00 0.00 52 1012.4
20260504010029 51 205 0.0 0.0 0.00 0.00 0.00 50 1012.5
20260504005526 51 206 0.0 0.0 0.00 0.00 0.00 50 1012.4
20260504005024 52 209 0.0 0.0 0.00 0.00 0.00 49 1012.3
20260504004522 52 200 0.0 0.0 0.00 0.00 0.00 49 1012.2
20260504004019 51 200 0.0 0.0 0.00 0.00 0.00 49 1012.1
20260504003514 52 210 0.0 0.0 0.00 0.00 0.00 50 1012.0
20260504003012 53 203 0.0 0.0 0.00 0.00 0.00 48 1012.2
20260504002508 53 196 0.0 0.9 0.00 0.00 0.00 45 1012.1
20260504002006 53 202 0.0 0.0 0.00 0.00 0.00 46 1011.9
20260504001503 53 202 0.0 0.0 0.00 0.00 0.00 45 1012.0
20260504000959 54 214 0.0 0.0 0.00 0.00 0.00 44 1011.8
20260504000456 55 215 0.0 0.0 0.00 0.00 0.00 42 1011.8
20260503235953 55 221 0.0 0.0 0.00 0.00 0.00 42 1011.6
20260503235451 56 221 0.0 0.0 0.00 0.00 0.00 42 1011.6
20260503234948 56 221 0.0 0.0 0.00 0.00 0.00 40 1011.6
20260503234446 57 239 0.9 1.7 0.00 0.00 0.00 38 1011.5
20260503233944 58 210 0.0 0.0 0.00 0.00 0.00 38 1011.5
20260503233440 58 243 1.7 1.7 0.00 0.00 0.00 36 1011.4
20260503232936 59 231 1.7 1.7 0.00 0.00 0.00 35 1011.2
20260503232433 59 230 1.7 1.7 0.00 0.00 0.00 36 1011.4
20260503231932 59 308 4.3 7.8 0.00 0.00 0.00 35 1011.4
20260503231429 59 289 7.0 8.7 0.00 0.00 0.00 34 1011.5
20260503230925 59 291 2.6 5.2 0.00 0.00 0.00 34 1011.5
20260503230421 59 291 5.2 6.1 0.00 0.00 0.00 34 1011.2
20260503225919 59 265 3.5 4.3 0.00 0.00 0.00 34 1011.1
20260503225415 60 232 2.6 2.6 0.00 0.00 0.00 34 1011.3
20260503224911 59 291 4.3 6.1 0.00 0.00 0.00 33 1011.2
20260503224409 60 261 4.3 5.2 0.00 0.00 0.00 33 1011.2
20260503223906 60 291 5.2 7.8 0.00 0.00 0.00 33 1011.2
20260503223404 60 290 6.1 7.8 0.00 0.00 0.00 32 1011.2
20260503222859 60 275 1.7 1.7 0.00 0.00 0.00 33 1011.0
20260503222358 60 293 5.2 6.1 0.00 0.00 0.00 33 1011.0
20260503221856 60 301 7.8 8.7 0.00 0.00 0.00 32 1011.2
20260503221355 60 309 9.6 13.0 0.00 0.00 0.00 32 1011.3
20260503220850 59 320 7.0 11.3 0.00 0.00 0.00 33 1011.2
20260503220347 59 299 7.0 8.7 0.00 0.00 0.00 33 1011.2
20260503215844 60 282 8.7 13.9 0.00 0.00 0.00 33 1011.2
20260503215341 59 299 9.6 13.9 0.00 0.00 0.00 33 1010.9
20260503214839 59 334 6.1 7.8 0.00 0.00 0.00 33 1010.9
20260503214336 60 288 7.0 9.6 0.00 0.00 0.00 33 1011.1